* Astronomy

Members Login
Username 
 
Password 
    Remember Me  
Post Info TOPIC: Asteroid 2011 XC2


L

Posts: 131433
Date:
Asteroid 2011 XC2
Permalink  
 


Orbital elements:
2011 XC2                                                 Earth MOID = 0.0006 AU
Epoch 2012 Mar. 14.0 TT = JDT 2456000.5                 MPC
M  47.18032              (2000.0)            P               Q
n   0.34120580     Peri.  306.65895     +0.85960875     -0.22874462
a   2.0282669      Node    70.74761     +0.45920700     +0.73797013
e   0.5869906      Incl.   28.94405     -0.22405742     +0.63488265
P   2.89           H   22.6           G   0.15           U   8

MPEC 2011 - X35

Ephemeris:

Date    TT    R. A. (2000) Decl.     Delta      r     Elong.  Phase     V
2011 11 26    15 28 52.2 -73 57 00   0.09278 0.9347    53.4   122.1    22.3
2011 12 04    22 48 49.6 +58 52 03   0.0049680.9874   110.1    69.7    13.5
2011 12 10    02 47 00.8 +74 11 24   0.07723 1.0316   125.5    51.0    19.0
2011 12 11    02 50 58.3 +74 09 30   0.08936 1.0393   125.6    50.4    19.3
2011 12 12    02 54 09.6 +74 06 57   0.1015  1.0470   125.6    49.9    19.6


-- Edited by Blobrana on Sunday 11th of December 2011 01:43:39 AM

__________________
Page 1 of 1  sorted by
 
Quick Reply

Please log in to post quick replies.



Create your own FREE Forum
Report Abuse
Powered by ActiveBoard